Home > Weather > Gainesville > Past weeks

Flag for USA Past Weather in Gainesville, Florida, USA — Yesterday and Last 2 Weeks

Now
82 °F

Passing clouds.


Feels Like: 85 °F
Forecast: 67 / 89 °F
Wind: 5 mph from North

Location: Gainesville Regional Airport

Current Time: May 28, 2016 at 12:12:19 PM

Latest Report: May 28, 2016 at 10:53 AM


Visibility: 10 mi

Pressure: 30.06 "Hg

Humidity: 63%

Dew Point: 68 °F

Location of GainesvilleLocation

Past Weather in Gainesville — Graph

°F

Gainesville Temperature Yesterday

Maximum temperature yesterday: 86 °F (at 2:53 PM)
Minimum temperature yesterday: 62 °F (at 4:53 AM)
Average temperature yesterday: 74 °F

High & Low Weather Summary for the Past Weeks

 TemperatureHumidityPressure
High90 °F (May 16, 3:53 PM)100% (May 14, 1:53 AM)30.23 "Hg (May 14, 1:53 AM)
Low58 °F (May 23, 4:53 AM)31% (May 14, 3:53 PM)29.84 "Hg (May 22, 3:53 PM)
Average75 °F72%30.02 "Hg
* Reported May 13 9:53 AM — May 28 9:53 AM, Gainesville, Weather by CustomWeather, © 2016

Note: Actual official high and low records may vary slightly from our data, if they occured in-between our weather recording intervals... More about our weather records

Advertising

Gainesville Weather History for the Previous 24 Hours

Scroll right to see more
 ConditionsComfort  
Time TempWeatherWind HumidityBarometerVisibility
9:53 AM
Sat, May 28
80 °FPassing clouds.7 mph69%30.07 "Hg10 mi
8:53 AM76 °FSunny.6 mph77%30.06 "Hg10 mi
7:53 AM69 °FSunny.7 mph90%30.06 "Hg10 mi
6:53 AM65 °FClear.No wind97%30.04 "Hg10 mi
5:53 AM64 °FClear.5 mph97%30.02 "Hg10 mi
4:53 AM64 °FClear.No wind97%30.01 "Hg10 mi
3:53 AM65 °FClear.No wind97%29.99 "Hg10 mi
2:53 AM66 °FClear.No wind96%30.00 "Hg10 mi
1:53 AM69 °FClear.3 mph90%30.01 "Hg10 mi
12:53 AM69 °FClear.6 mph90%30.02 "Hg10 mi
11:53 PM
Fri, May 27
70 °FClear.7 mph87%30.03 "Hg10 mi
10:53 PM72 °FClear.3 mph78%30.03 "Hg10 mi
9:53 PM73 °FClear.6 mph74%30.02 "Hg10 mi
8:53 PM76 °FSunny.6 mph64%30.00 "Hg10 mi
7:53 PM79 °FSunny.10 mph56%29.99 "Hg10 mi
6:53 PM81 °FScattered clouds.13 mph56%29.97 "Hg10 mi
5:53 PM83 °FPartly sunny.12 mph53%29.98 "Hg10 mi
4:53 PM84 °FScattered clouds.9 mph53%29.99 "Hg10 mi
3:53 PM86 °FScattered clouds.15 mph45%30.00 "Hg10 mi
2:53 PM86 °FScattered clouds.10 mph43%30.01 "Hg10 mi
1:53 PM82 °FBroken clouds.9 mph49%30.03 "Hg10 mi
12:53 PM82 °FBroken clouds.9 mph46%30.06 "Hg10 mi
Weather by CustomWeather, © 2016

See weather overviewHow to use our weather pages